Regional Weather Roundup
Issued by NWS

Home | Current Version | Previous Version | Text Only | Print | Product List | Glossary Off
Versions: 1 2 3 4 5 6 7 8 9 10 11 12 13 14 15 16 17 18 19 20 21 22 23 24 25 26 27 28 29 30 31 32 33 34 35 36 37 38 39 40 41 42 43 44 45 46 47 48 49 50

000
ASUS43 KIND 260609
RWRIN

WEATHER ROUNDUP FOR INDIANA
NATIONAL WEATHER SERVICE INDIANAPOLIS IN
200 AM EDT FRI MAY 26 2017

NOTE: "FAIR" INDICATES FEW OR NO CLOUDS BELOW 12,000 FEET WITH NO
SIGNIFICANT WEATHER AND/OR OBSTRUCTIONS TO VISIBILITY.

* - STATION DOES NOT REPORT WEATHER SUCH AS PRECIPITATION OR FOG.

+ - STATION NOT QUALITY CONTROLLED BY THE NATIONAL WEATHER SERVICE.
    USE DATA WITH CAUTION...ESPECIALLY DEWPOINT AND RELATIVE
    HUMIDITY OBSERVATIONS.

INZ001>003-010>013-019-020-260700-
NORTHWEST INDIANA

CITY           SKY/WX    TMP DP  RH WIND       PRES   REMARKS
GARY /AIRPORT/ CLEAR     51  51  99 CALM      29.80R FOG
KNOX *+        CLEAR     50  46  87 W5        29.78S
LA PORTE +     CLEAR     50  49  97 NW6       29.79S
6HR MIN TEMP:  50; 6HR MAX TEMP:  57;

MICHIGAN CITY+ CLEAR     46  46 100 CALM      29.79S FOG
MONTICELLO +   CLEAR     53  51  92 CALM      29.79S
6HR MIN TEMP:  53; 6HR MAX TEMP:  62;

RENSSELAER +   CLEAR     52  50  93 CALM      29.81R
VALPARAISO     PTCLDY    53  51  93 W5        29.80R
6HR MIN TEMP:  52; 6HR MAX TEMP:  60;


$$

LMZ046-743>745-260700-
SOUTHERN LAKE MICHIGAN

STATION/POSITION TIME  TEMP    WIND        PRES    WAVE
                       AIR SEA DIR/SP/G            HT
                 (UTC) (F)     (DEG/KT/KT) (MB)    (FT)
BURNS HARBOR     0540   55     290/  5/  8 1009.5R
MICHIGAN CITY    0540   52     250/  8/  9   N/A
5NW MICH CITY    0600   51 51  250/  6/  8   N/A     2

$$

INZ004-005-014>016-021>024-260700-
NORTH CENTRAL INDIANA

CITY           SKY/WX    TMP DP  RH WIND       PRES   REMARKS
GOSHEN         CLOUDY    52  49  89 W13       29.76R
6HR MIN TEMP:  52; 6HR MAX TEMP:  61;

LOGANSPORT +   CLEAR     52  50  93 W7        29.80S
PERU/GRISSOM   CLEAR     54  54 100 W9        29.78R
6HR MIN TEMP:  54; 6HR MAX TEMP:  62;

ROCHESTER +    CLEAR     54  52  94 W6        29.78S
SOUTH BEND     CLOUDY    50  50 100 W10       29.78R
6HR MIN TEMP:  48; 6HR MAX TEMP:  57;

WARSAW +       PTCLDY    50  50 100 W8        29.77R

$$

INZ006>009-017-018-025>027-260700-
NORTHEAST INDIANA

CITY           SKY/WX    TMP DP  RH WIND       PRES   REMARKS
AUBURN +       CLEAR     54  50  87 W8        29.74R
FORT WAYNE     PTCLDY    55  51  86 W12       29.75R
6HR MIN TEMP:  55; 6HR MAX TEMP:  61;

HUNTINGTON +   CLEAR     54  52  95 W6        29.76R
6HR MIN TEMP:  53; 6HR MAX TEMP:  58;

KENDALLVILLE + CLOUDY    52  52  98 W6        29.74R

$$

INZ028-029-035-036-043>045-051>053-260700-
WEST CENTRAL INDIANA

CITY           SKY/WX    TMP DP  RH WIND       PRES   REMARKS
CRAWFORDSVL +  CLEAR     49  49 100 CALM      29.82S FOG
6HR MIN TEMP:  49; 6HR MAX TEMP:  60;

GREENCASTLE +    N/A     50  50 100 CALM      29.84R FOG
LAFAYETTE      FOG       51  51 100 W3        29.80S VSB 1/2
6HR MIN TEMP:  50; 6HR MAX TEMP:  63;

TERRE HAUTE    CLEAR     54  52  93 CALM      29.83R FOG
6HR MIN TEMP:  54; 6HR MAX TEMP:  66;


$$

INZ030>032-037>040-046>048-054>057-064-065-260700-
CENTRAL INDIANA

CITY           SKY/WX    TMP DP  RH WIND       PRES   REMARKS
CP ATTERBURY + CLEAR     50  50 100 SW3       29.84R FOG
FISHERS *+     CLEAR     54  54 100 CALM      29.82R
FRANKFORT +    CLEAR     55  54  94 W5        29.83R FOG
6HR MIN TEMP:  55; 6HR MAX TEMP:  64;

GREENWOOD *+   CLEAR     55  52  90 CALM      29.83S
INDIANAPOLIS   CLEAR     53  51  93 W5        29.82R
6HR MIN TEMP:  52; 6HR MAX TEMP:  63;

-EAGLE CREEK   CLEAR     57  52  83 CALM      29.81R
6HR MIN TEMP:  56; 6HR MAX TEMP:  63;

KOKOMO +       CLEAR     56  53  90 W9        29.80R
6HR MIN TEMP:  55; 6HR MAX TEMP:  62;

MARION +       CLEAR     55  52  88 W10       29.79S FOG
MT COMFORT *+  CLEAR     54  52  94 W7        29.82R
SHELBYVILLE    CLEAR     57  52  83 W8        29.81R
6HR MIN TEMP:  57; 6HR MAX TEMP:  64;

ZIONSVILLE +   CLEAR     54  52  92 W5        29.82R
6HR MIN TEMP:  54; 6HR MAX TEMP:  60;


$$

INZ033-034-041-042-049-050-058-059-260700-
EAST CENTRAL INDIANA

CITY           SKY/WX    TMP DP  RH WIND       PRES   REMARKS
MUNCIE         PTCLDY    58  55  90 W9        29.79R
6HR MIN TEMP:  58; 6HR MAX TEMP:  62;

RICHMOND +     PTCLDY    55  54  94 W12       29.80R

$$

INZ060-061-067>069-081>083-085>088-260700-
SOUTHWEST INDIANA

CITY           SKY/WX    TMP DP  RH WIND       PRES   REMARKS
EVANSVILLE     CLEAR     58  53  84 CALM      29.85R
6HR MIN TEMP:  57; 6HR MAX TEMP:  73;

HUNTINGBURG *+ CLEAR     58  55  90 S3        29.85R
6HR MIN TEMP:  58; 6HR MAX TEMP:  69;

WASHINGTON +   CLEAR     56  54  94 CALM      29.83S FOG
6HR MIN TEMP:  56; 6HR MAX TEMP:  68;


$$

INZ062-063-066-070>080-084-089>092-260700-
SOUTH CENTRAL AND SOUTHEAST INDIANA

CITY           SKY/WX    TMP DP  RH WIND       PRES   REMARKS
BEDFORD +      CLEAR     54  52  94 CALM      29.84R FOG
BLOOMINGTON    CLEAR     53  50  89 CALM      29.83S FOG
6HR MIN TEMP:  52; 6HR MAX TEMP:  65;

MADISON *+     PTCLDY    55  54  94 SW3       29.86R
NORTH VERNON + MOCLDY    54  52  94 CALM      29.84R
SEYMOUR +      CLEAR     55  55 100 SW5       29.83R

$$





USA.gov is the U.S. government's official web portal to all federal, state and local government web resources and services.